{"data":{"norad_id":65306,"epoch":"2026-09-21T22:50:58.896384Z","epoch_age_seconds":36817,"freshness":"FRESH","line1":"1 65306U 25187B   26264.95207056 -.00000110  00000+0  30064-4 0  9996","line2":"2 65306  50.0085 218.8234 0000744   6.5619 353.5263 13.29324557 52577","mean_motion":13.29324557,"eccentricity":7.44e-5,"inclination_deg":50.0085,"raan_deg":218.8234,"arg_perigee_deg":6.5619,"mean_anomaly_deg":353.5263,"bstar":3.0064e-5,"rev_number":5257,"period_min":108.32569009706,"perigee_km":1148.7519770744,"apogee_km":1149.8720614885,"semimajor_km":7527.4490192815,"source":"CELESTRAK","updated_at":"2026-09-22T09:00:30.256487Z"}}